This is the latest recevied weather packets stored in our database for station/object KE0FIN. If no packets are shown the sender has not sent any weather packets the latest 1 day(s).
| Time | Temp. | Humidity | Pressure | Rain* | Wind** | Luminosity | Snow |
|---|---|---|---|---|---|---|---|
| 1778024473 | 11.67° C | 61% | 1063.6 hPa | 0 mm | 1.34 m/s, 90° | 33 W/m² | - |
| 1778024171 | 11.67° C | 61% | 1063.3 hPa | 0 mm | 0 m/s | 32 W/m² | - |
| 1778023868 | 11.67° C | 60% | 1063.5 hPa | 0 mm | 0.89 m/s, 108° | 37 W/m² | - |
| 1778023566 | 11.67° C | 61% | 1063.3 hPa | 0 mm | 0.89 m/s, 80° | 40 W/m² | - |
| 1778023263 | 11.67° C | 60% | 1063.3 hPa | 0 mm | 0.45 m/s, 117° | 29 W/m² | - |
| 1778022960 | 11.67° C | 58% | 1063.2 hPa | 0 mm | 1.34 m/s, 49° | 34 W/m² | - |
| 1778022659 | 11.67° C | 56% | 1063.2 hPa | 0 mm | 0 m/s | 43 W/m² | - |
| 1778022356 | 11.67° C | 57% | 1063.1 hPa | 0 mm | 0.89 m/s, 117° | 55 W/m² | - |
| 1778022052 | 11.67° C | 58% | 1063 hPa | 0 mm | 1.34 m/s, 89° | 37 W/m² | - |
| 1778021749 | 12.22° C | 59% | 1062.9 hPa | 0 mm | 0.89 m/s, 123° | 32 W/m² | - |
| 1778021445 | 12.78° C | 60% | 1062.6 hPa | 0 mm | 0.45 m/s, 122° | 55 W/m² | - |
| 1778021142 | 12.78° C | 61% | 1062.6 hPa | 0 mm | 0.89 m/s, 99° | 86 W/m² | - |
| 1778020839 | 12.22° C | 60% | 1062.8 hPa | 0 mm | 0.89 m/s, 96° | 112 W/m² | - |
| 1778020536 | 12.78° C | 60% | 1062.7 hPa | 0 mm | 0.45 m/s, 107° | 110 W/m² | - |
| 1778020232 | 12.78° C | 59% | 1062.9 hPa | 0 mm | 0.45 m/s, 101° | 99 W/m² | - |
| 1778019929 | 12.78° C | 59% | 1063 hPa | 0 mm | 0.45 m/s, 87° | 110 W/m² | - |
| 1778019625 | 12.78° C | 59% | 1062.9 hPa | 0 mm | 0.89 m/s, 126° | 101 W/m² | - |
| 1778019323 | 12.78° C | 59% | 1062.9 hPa | 0 mm | 0 m/s | 114 W/m² | - |
| 1778019019 | 12.78° C | 58% | 1062.8 hPa | 0 mm | 1.34 m/s, 138° | 137 W/m² | - |
| 1778018716 | 12.78° C | 58% | 1063.2 hPa | 0 mm | 0.45 m/s, 120° | 125 W/m² | - |
| 1778018414 | 12.78° C | 61% | 1063.2 hPa | 0 mm | 0.45 m/s, 140° | 121 W/m² | - |
| 1778018112 | 12.22° C | 63% | 1063.3 hPa | 0 mm | 0.45 m/s, 99° | 115 W/m² | - |
| 1778017809 | 12.22° C | 63% | 1063.2 hPa | 0 mm | 0.89 m/s, 116° | 101 W/m² | - |
| 1778017508 | 12.22° C | 63% | 1063.4 hPa | 0 mm | 0.45 m/s, 108° | 93 W/m² | - |
| 1778017204 | 12.22° C | 64% | 1063.2 hPa | 0 mm | 0 m/s | 89 W/m² | - |
* Rain latest hour (hover to see other rain measurements)
** Current wind speed in m/s (hover to see current wind gust speed)